Theta_e
312 311 311 310 310 310 310 310 310 309 309 309 309 308 308 308 308 308 308 308 307 307 306 306 306 306 306 306 306 306 307 306 307 307 307 306 307 307 307 308 308 309 309 310 311 311 311 312 313 313 314 314 315 315 316 318 319 319 320 321 322 323 324 326 328 330 330 331 331 330 329 328 328 328 329 329 330 330 329 329 329 329 328 327 326
311 310 310 310 310 310 309 309 309 309 309 308 308 308 308 308 308 308 307 307 306 306 306 306 306 306 306 306 306 306 306 306 306 306 306 306 306 306 306 307 308 308 309 310 310 310 311 312 312 312 312 312 313 314 315 315 316 316 317 317 318 320 321 323 325 327 329 330 330 330 330 328 328 328 328 329 329 329 329 329 329 329 328 327 327
310 310 310 310 309 309 309 308 308 308 308 308 308 307 307 307 307 307 307 306 306 305 305 305 305 305 305 305 305 305 304 305 305 305 305 305 305 306 306 306 307 308 309 309 309 310 310 311 311 311 310 310 311 311 312 312 311 312 313 314 316 317 318 320 322 324 327 327 328 330 330 329 328 328 328 328 328 329 329 329 329 329 328 328 327
310 310 309 309 308 308 308 308 308 308 308 307 307 307 307 306 306 306 306 306 306 305 305 305 305 305 304 304 304 303 303 303 303 304 304 305 305 305 306 306 307 308 308 308 308 308 309 309 309 308 308 308 309 308 308 308 308 308 309 310 312 314 315 317 319 321 324 325 327 328 330 330 330 328 328 328 328 329 329 329 330 329 328 328 328
309 309 308 308 308 307 307 307 307 307 307 307 307 306 306 306 305 305 305 305 305 305 305 305 304 304 303 303 303 302 302 301 301 302 303 304 305 305 306 306 306 307 307 307 307 307 307 307 307 306 306 307 307 306 305 305 305 305 306 307 308 310 312 313 316 318 321 324 325 327 329 330 330 329 328 327 328 329 329 329 330 330 329 328 328
309 308 308 307 307 307 307 307 307 307 306 306 306 306 305 305 305 305 305 305 305 304 304 304 303 303 302 302 302 301 301 300 300 300 301 303 304 304 305 305 306 306 306 306 306 306 306 305 305 305 305 305 304 304 303 303 303 303 303 304 305 307 309 310 312 315 318 321 324 325 327 329 330 330 329 327 328 329 329 329 329 329 329 328 328
308 308 307 307 307 307 306 306 306 306 305 305 305 305 304 304 304 304 304 304 304 303 303 303 303 302 302 301 301 300 300 299 298 298 299 301 303 304 304 304 305 305 305 305 305 305 304 304 304 304 304 303 302 302 301 301 301 301 302 302 304 305 306 307 309 311 314 318 322 324 326 328 330 330 329 327 327 328 328 329 329 329 329 328 328
308 307 307 306 306 305 305 305 305 305 305 304 304 304 304 304 303 303 303 303 303 303 303 303 302 302 302 301 300 300 299 298 296 296 297 300 302 303 303 303 303 303 304 303 303 303 303 303 303 303 302 302 301 300 300 300 300 300 300 301 302 303 303 305 307 309 312 315 319 323 325 327 329 330 328 328 328 328 328 328 328 328 329 329 328
307 307 306 305 305 305 304 304 304 304 304 304 304 304 303 303 303 303 302 302 302 302 302 302 302 302 301 301 300 300 298 297 296 296 296 298 301 302 302 302 303 302 302 302 302 302 302 302 302 301 301 300 300 299 299 298 298 299 299 300 300 301 302 304 305 307 310 313 317 321 324 326 328 330 329 328 327 327 327 327 327 327 328 329 329
306 306 305 304 304 304 304 304 303 303 303 303 303 303 303 302 302 302 302 302 302 302 302 302 302 302 301 301 301 300 297 296 296 296 297 298 300 301 302 302 302 302 301 301 301 301 301 301 301 301 300 300 300 299 298 298 298 298 298 299 299 300 301 303 304 306 308 311 315 319 323 325 327 329 329 328 327 326 326 327 327 327 327 328 328
305 304 304 303 303 303 303 303 303 302 302 302 302 302 302 302 302 302 302 302 302 302 302 302 302 302 301 301 300 299 297 296 296 297 297 298 299 301 301 301 301 301 301 301 300 300 300 300 300 300 300 299 299 298 298 298 299 299 299 300 301 302 303 303 305 306 307 309 312 317 322 325 326 328 329 328 327 326 326 326 327 327 327 327 328
304 303 303 303 302 302 302 302 302 302 302 302 302 302 301 301 301 302 302 301 302 302 302 302 302 302 301 301 300 299 297 295 296 296 297 298 299 300 301 300 300 300 300 300 300 300 299 299 299 299 299 299 298 297 297 298 299 299 300 301 303 304 305 306 306 307 307 308 310 313 318 322 324 326 328 329 328 327 326 326 326 327 327 327 327
303 302 302 302 302 302 302 302 301 301 301 301 301 301 301 301 301 301 301 301 301 302 302 302 301 301 301 301 300 298 296 295 296 296 297 298 299 300 300 300 300 300 300 300 300 299 299 299 298 298 298 298 297 296 296 297 298 300 301 302 303 304 306 307 306 305 306 307 308 309 313 318 321 323 325 328 329 328 327 326 325 326 327 327 326
302 301 301 301 301 301 301 301 301 301 301 301 301 301 301 301 301 301 301 301 301 301 302 301 301 301 301 301 300 298 295 295 296 296 297 298 299 300 300 300 300 299 299 299 299 299 298 298 298 297 297 297 296 295 294 295 298 300 301 301 302 303 305 306 305 304 305 306 306 308 310 314 317 319 322 325 328 328 327 327 326 326 326 326 326
301 301 300 300 300 300 301 301 301 301 300 301 301 301 301 301 301 301 301 301 301 301 301 301 300 301 301 301 301 298 295 295 296 296 297 298 299 300 300 299 299 299 299 299 299 298 298 297 297 297 296 296 295 294 294 295 298 299 299 300 301 302 303 304 303 302 303 305 305 306 308 311 314 317 319 321 325 327 327 326 326 326 325 325 325
300 300 300 300 300 300 300 300 301 301 300 300 301 301 301 301 301 301 301 301 301 301 300 300 300 300 300 300 300 299 296 295 296 296 296 298 299 300 300 299 299 299 299 298 299 298 298 297 296 296 296 295 295 294 295 296 297 298 298 298 299 300 300 302 302 301 302 303 304 305 306 308 311 314 316 318 322 325 326 326 325 325 325 325 324
299 299 299 299 299 299 300 300 300 300 300 301 301 300 301 301 301 300 300 301 301 300 300 300 300 299 299 299 300 299 296 295 295 296 296 297 299 300 300 299 299 299 299 299 299 298 298 297 296 295 295 295 294 294 295 296 297 297 297 297 298 298 298 300 301 301 301 302 303 304 305 306 307 309 312 314 318 321 323 324 324 324 324 325 324
298 298 299 299 299 299 299 299 300 300 300 300 300 300 300 300 300 300 300 300 300 300 300 300 300 299 299 298 299 299 297 295 295 295 295 296 299 300 299 299 299 299 299 299 299 298 298 297 296 294 294 294 294 294 294 295 296 296 296 296 297 296 297 298 299 300 300 301 302 303 304 305 305 307 308 311 313 317 319 321 322 324 324 325 324
298 298 299 298 299 299 299 299 300 300 300 300 300 300 300 300 300 300 300 300 300 300 300 300 300 299 299 298 297 298 298 295 294 295 295 296 297 299 299 298 299 299 298 299 299 298 298 298 296 294 294 294 294 294 294 294 295 296 296 296 295 295 295 297 298 298 299 300 300 301 302 303 304 305 306 307 309 312 314 315 317 320 322 324 324
298 298 298 298 299 299 299 299 299 299 299 299 299 299 299 299 300 300 299 299 300 300 300 300 300 299 299 299 297 297 297 296 294 294 294 295 296 297 298 298 298 299 298 298 298 298 298 298 296 294 294 294 294 294 294 294 294 295 295 295 294 294 295 296 296 296 297 298 299 300 300 301 303 304 305 306 306 308 309 310 311 313 316 319 321
298 298 298 298 298 298 298 299 298 298 298 298 298 299 299 299 299 299 299 300 300 300 300 300 299 299 299 299 298 297 296 295 294 293 293 294 295 296 297 297 298 298 298 298 298 298 297 297 296 294 294 294 294 294 294 294 294 294 294 294 294 294 295 295 295 295 296 297 298 299 299 300 302 303 304 304 305 306 306 307 308 309 310 312 314
298 298 298 298 298 298 298 298 298 298 297 298 298 298 298 299 299 299 299 300 300 300 300 300 300 299 299 299 299 298 296 295 294 294 293 293 294 294 295 296 297 298 298 298 298 297 297 297 296 294 294 295 295 294 294 294 295 295 294 294 294 295 295 295 294 295 296 296 297 298 298 299 300 302 303 303 304 305 305 306 306 306 307 307 308
298 298 298 298 298 297 297 298 298 298 298 298 298 298 298 299 299 299 299 299 300 300 300 300 300 300 299 299 299 299 298 296 295 294 294 293 293 293 294 295 296 297 298 298 297 297 296 296 295 294 294 295 295 295 295 294 295 295 295 295 295 295 295 295 294 294 294 295 295 297 298 298 299 301 302 303 303 304 305 305 305 305 305 305 306
298 298 298 297 297 297 297 298 298 298 298 298 298 298 298 298 299 299 299 299 299 299 299 299 299 299 299 299 298 298 298 297 296 295 295 295 294 294 294 294 295 296 297 297 297 296 295 295 295 294 294 295 296 296 295 295 295 296 296 296 295 295 295 296 295 294 294 294 294 296 297 298 298 299 300 301 302 303 304 304 304 305 305 304 304
298 298 298 297 297 297 297 298 298 298 298 298 298 299 299 299 298 298 298 298 298 298 298 298 299 299 299 299 298 298 297 297 297 296 295 296 295 294 294 294 294 295 296 297 296 295 295 295 295 295 295 295 296 296 296 295 295 295 296 296 295 295 295 296 296 295 295 294 294 295 296 297 298 298 299 300 301 302 303 303 303 304 304 303 303
298 298 297 297 297 297 297 297 298 299 298 298 299 299 299 299 299 298 298 298 298 298 298 298 298 299 299 298 298 298 297 297 297 296 296 296 296 295 295 295 295 295 296 297 296 296 295 295 295 295 295 295 296 296 296 296 295 295 295 295 295 295 295 296 296 296 296 296 295 295 296 296 297 298 298 298 299 300 301 302 302 303 303 303 302
298 298 298 298 297 297 297 297 298 299 298 298 299 299 298 298 299 299 299 298 298 297 297 298 298 298 298 298 298 297 297 296 296 295 295 295 296 296 295 295 295 295 296 296 297 296 296 295 295 295 295 295 295 295 296 296 296 296 295 295 295 295 295 296 296 296 296 297 296 296 296 296 296 297 297 297 298 298 300 301 301 301 301 302 302
299 298 298 298 298 298 297 297 298 299 299 299 299 299 298 298 297 298 298 298 299 298 298 298 298 297 297 297 298 297 296 295 294 294 293 293 294 295 295 295 295 295 295 295 296 296 296 296 295 295 295 295 295 295 295 296 296 296 295 295 295 295 296 296 296 296 296 297 297 297 297 297 297 297 297 297 297 297 298 299 299 300 300 300 300
299 299 299 299 298 298 298 298 298 298 299 298 298 298 298 298 297 297 295 295 296 296 297 297 298 297 296 295 296 297 296 295 293 292 292 292 292 293 293 293 294 294 294 294 295 296 296 296 296 295 295 295 295 295 295 295 295 295 295 295 295 295 295 296 296 296 296 297 297 297 298 298 298 298 298 298 297 297 297 297 298 298 299 299 299
299 299 299 299 298 298 299 299 299 298 298 298 297 296 297 297 297 296 295 293 293 293 294 294 295 296 297 295 294 294 294 293 292 292 292 293 292 292 293 293 293 293 294 294 295 296 296 296 296 295 295 295 295 295 295 294 295 295 295 294 294 294 294 295 296 296 296 296 297 298 298 299 299 299 298 298 298 297 297 297 297 297 298 298 298
299 299 299 299 298 299 299 299 299 299 299 298 298 297 296 295 295 295 294 294 293 293 293 293 293 294 295 296 295 293 292 292 293 292 292 293 293 292 293 293 293 293 294 294 295 295 295 295 295 295 295 295 295 295 295 295 294 294 294 294 294 294 294 295 295 296 296 296 296 297 298 298 299 299 299 299 298 298 298 297 297 297 297 297 297
299 300 299 299 299 299 299 299 299 299 299 299 299 299 298 297 296 295 294 294 294 294 293 293 293 292 293 293 294 293 291 291 292 292 292 292 293 293 293 293 293 294 294 295 295 294 294 295 295 295 294 294 294 294 295 295 294 294 294 294 294 294 294 294 295 295 295 296 296 296 297 297 298 298 299 299 299 299 298 298 298 297 297 297 297
300 300 299 298 299 299 299 299 299 298 299 299 299 299 299 299 298 297 296 295 295 294 294 294 294 293 293 292 292 291 291 290 290 291 292 293 293 293 293 294 294 294 295 295 295 294 294 294 294 294 294 294 294 294 294 294 294 294 294 294 294 294 294 294 294 294 294 295 295 296 296 297 297 297 298 298 299 299 299 299 299 298 298 297 297
300 300 299 298 299 299 299 299 299 299 299 299 299 299 299 299 299 299 298 297 296 296 295 294 294 294 293 293 292 292 291 291 290 290 291 292 293 293 294 295 295 295 295 296 295 294 294 294 294 294 294 294 294 293 294 294 293 293 294 293 293 293 293 293 293 294 294 294 295 295 296 296 296 297 297 298 298 298 298 299 299 299 298 298 297
300 299 299 299 299 299 299 299 299 299 299 299 299 299 298 298 298 298 298 298 298 298 297 296 295 294 294 294 293 293 292 292 291 290 290 291 293 294 295 295 295 295 295 295 295 294 294 294 294 294 293 294 293 293 293 293 293 293 293 293 292 292 292 292 293 293 293 294 294 294 295 296 296 296 297 297 297 298 298 298 298 298 298 298 297
299 299 298 299 300 299 299 299 299 299 299 299 299 298 298 298 298 298 298 298 298 298 298 298 297 296 295 294 294 294 293 293 292 291 291 291 293 295 295 295 295 295 295 295 295 294 294 293 294 293 293 293 293 293 292 292 292 292 292 292 291 291 291 291 292 292 292 293 293 294 294 295 295 296 296 296 296 297 298 298 298 298 298 298 297
300 299 298 299 300 299 299 299 299 299 299 298 298 298 298 298 298 298 298 298 297 298 298 298 297 297 297 295 294 294 294 294 294 293 293 293 294 295 295 295 295 295 295 294 294 294 294 293 293 293 293 293 293 292 292 292 292 291 291 290 290 289 290 290 291 291 292 292 293 293 294 294 295 295 296 296 296 296 296 297 298 298 298 298 297
300 299 299 299 300 299 299 299 299 298 298 298 299 299 299 298 298 298 298 298 297 297 298 298 297 298 298 297 295 295 295 295 295 295 295 294 295 295 295 295 295 295 295 294 294 294 294 293 293 293 293 292 292 292 292 292 292 291 290 290 289 288 289 289 290 291 291 291 292 292 293 293 294 295 295 295 296 296 296 296 297 297 298 297 297
300 300 299 299 299 299 299 299 298 298 298 299 299 299 298 298 298 298 298 298 298 298 298 298 297 298 298 297 297 297 297 296 296 296 295 295 295 296 296 295 295 295 295 295 294 294 294 293 293 293 292 292 292 292 292 291 291 291 290 289 288 288 289 289 290 290 290 290 291 292 292 292 293 294 294 295 295 295 296 296 296 296 297 297 297
300 299 298 298 299 299 299 299 299 298 299 299 299 299 298 298 298 298 298 298 298 298 298 297 298 298 297 296 296 296 297 297 296 296 295 295 295 296 296 296 295 295 295 295 294 294 294 293 293 292 292 292 292 291 291 291 291 291 291 289 288 288 289 289 289 290 290 290 290 291 291 292 292 293 293 294 294 294 295 295 295 296 296 296 296
300 299 298 298 298 299 299 299 299 299 299 299 299 299 299 298 298 298 298 298 298 298 298 298 298 297 296 295 295 295 296 297 297 296 296 296 296 296 295 296 296 296 295 295 294 294 293 293 293 292 292 291 291 291 291 291 291 291 291 290 288 288 288 288 288 289 289 290 290 290 290 291 291 292 292 293 293 294 294 295 295 295 295 296 296
300 299 299 298 298 299 299 299 299 299 299 298 298 298 298 298 298 297 297 297 297 297 297 298 298 298 296 295 294 295 296 296 297 296 296 296 296 296 295 296 296 296 296 295 295 294 294 293 293 292 292 291 292 291 291 291 291 291 291 290 289 288 288 288 288 288 289 290 289 289 289 290 290 291 291 291 292 293 293 294 294 295 295 295 295
300 299 299 299 298 298 299 299 299 299 299 298 298 298 298 298 298 297 297 297 297 296 297 297 297 298 297 296 295 294 295 296 297 296 296 296 296 296 296 296 296 296 296 296 295 295 294 293 293 293 292 292 292 292 291 291 291 291 291 290 290 288 288 288 288 288 288 289 289 289 289 289 290 290 290 291 291 292 292 292 293 294 294 294 295
300 299 299 299 299 299 299 299 299 299 299 298 298 298 297 297 297 298 297 297 297 296 296 296 296 297 297 297 296 295 296 297 297 296 296 296 296 296 296 296 296 295 296 296 295 295 294 294 293 293 292 293 293 292 292 291 291 291 291 291 290 289 288 288 287 287 287 288 289 289 289 289 289 289 290 290 290 290 291 291 292 293 293 293 293
300 300 299 299 299 299 299 298 298 298 298 298 297 297 297 297 297 297 297 297 297 296 296 296 296 296 297 297 297 297 297 296 296 295 295 295 296 296 296 296 296 295 295 295 295 295 295 294 294 293 293 293 293 293 292 292 292 292 291 291 291 290 289 288 288 288 287 287 288 289 289 289 289 288 289 289 290 290 290 290 291 291 292 293 293
299 300 299 299 299 299 298 298 298 298 298 298 297 297 297 297 297 298 297 297 297 297 296 296 296 296 296 296 296 296 296 296 295 295 295 295 295 295 295 295 295 295 295 295 295 295 294 294 294 294 293 293 293 293 293 293 292 292 292 292 292 291 290 289 289 289 288 288 288 289 289 289 289 288 288 289 289 289 289 289 290 290 291 292 292
299 299 299 299 299 299 298 298 298 298 298 298 298 298 298 298 298 298 297 297 297 297 296 296 296 296 296 296 296 296 296 295 295 295 295 295 295 295 295 295 295 295 295 295 295 295 294 294 294 294 293 293 293 293 293 293 293 292 292 292 292 291 291 291 290 289 289 289 289 289 289 289 289 288 288 288 289 289 289 289 289 289 290 290 291
299 299 299 299 299 299 299 298 298 298 298 298 298 297 297 297 297 297 297 297 297 297 297 296 296 297 297 296 296 296 296 295 295 295 295 295 295 295 294 295 295 294 295 295 295 295 295 294 294 294 294 294 293 293 293 293 293 293 293 292 292 292 292 292 291 290 290 290 290 289 290 289 289 289 288 288 288 289 288 288 289 289 289 290 290
299 299 299 299 299 299 299 299 298 298 297 297 298 297 297 297 297 297 297 297 297 297 297 297 297 297 297 297 297 297 296 296 295 295 295 295 295 295 295 295 295 294 294 294 294 295 295 295 294 294 294 294 294 294 293 293 293 293 293 292 292 292 292 292 292 292 292 291 290 290 291 290 290 290 289 289 289 289 288 288 289 289 289 289 289
299 299 300 299 299 299 299 299 298 298 298 298 298 298 298 298 298 298 298 298 298 298 297 297 297 297 297 297 297 297 296 296 296 296 296 296 296 296 296 296 296 295 294 294 294 294 294 294 295 294 294 294 294 294 294 294 293 293 293 292 292 292 292 292 292 292 292 292 291 291 291 291 290 290 290 290 290 289 289 289 289 289 289 289 289
299 299 299 299 299 299 299 299 298 298 298 298 298 298 298 298 298 298 298 298 298 298 298 297 297 297 297 297 297 297 297 297 297 297 297 297 297 297 296 296 296 296 295 295 294 294 294 294 294 294 295 294 294 294 294 294 294 293 293 293 292 292 292 292 292 292 292 292 292 291 291 291 291 290 290 290 290 290 289 289 289 289 290 290 289
Wind_Speed
12 12 13 13 12 12 12 12 11 10 11 11 12 12 11 10 10 10 11 12 11 11 11 11 11 11 12 13 13 14 14 14 14 13 14 14 13 13 14 15 15 15 15 16 16 17 17 17 18 18 18 18 18 18 18 19 19 20 21 22 24 25 26 22 15 14 17 16 18 22 24 24 26 28 31 33 34 35 36 38 38 36 37 40 42
13 13 13 13 13 12 12 11 11 10 11 12 12 12 12 11 11 11 12 12 12 12 11 11 11 12 13 13 13 14 15 14 14 14 14 15 14 14 14 15 15 16 16 17 17 18 18 18 18 18 18 18 18 18 18 19 20 20 21 21 22 23 24 25 21 16 15 16 18 20 22 23 25 28 30 33 34 34 35 37 38 38 37 39 40
13 13 13 13 12 12 12 12 11 11 11 12 12 13 12 12 12 12 12 12 12 12 12 11 12 12 13 14 14 15 15 15 15 14 14 15 15 15 15 15 16 17 17 17 18 18 18 18 18 19 19 19 19 19 19 20 21 21 22 21 22 23 23 23 23 20 19 20 20 19 19 22 25 28 29 31 33 33 34 36 38 38 38 39 40
13 13 13 12 12 12 12 12 11 11 12 13 13 13 13 13 13 13 13 12 12 12 12 12 12 13 13 14 15 16 16 16 16 15 15 15 16 16 16 16 17 17 17 17 18 18 18 19 19 19 20 20 21 20 21 22 23 22 23 23 22 23 23 21 22 22 21 22 23 22 19 19 22 26 28 29 31 32 32 34 36 36 38 39 40
13 13 13 13 13 13 13 12 12 12 13 14 14 14 14 14 14 14 14 13 13 12 12 12 13 14 14 15 15 16 17 18 18 17 16 15 16 16 16 16 17 17 17 17 18 18 18 19 19 20 20 21 22 23 23 25 25 23 24 24 24 24 24 23 22 23 23 23 23 24 21 19 19 23 26 28 29 29 30 32 33 34 36 38 39
13 13 13 13 13 13 12 13 13 13 14 14 14 14 14 15 14 14 14 13 13 13 13 13 13 14 15 16 16 17 18 19 20 19 17 16 16 16 16 17 17 16 17 18 18 18 19 19 19 19 20 22 23 24 26 27 26 26 26 26 26 25 25 25 23 23 24 24 23 25 24 21 18 19 23 27 28 27 26 28 31 33 34 36 37
13 13 12 12 13 13 13 13 13 14 14 14 15 15 15 15 15 14 14 14 14 14 13 13 13 14 15 16 17 18 19 21 23 22 19 16 15 16 16 17 17 17 17 18 18 19 19 19 19 20 21 22 24 25 27 27 27 28 28 27 27 27 26 26 24 23 23 23 23 24 25 22 18 18 21 24 26 27 25 23 25 29 32 34 36
13 12 12 13 13 13 13 13 14 14 15 15 15 16 16 16 15 15 14 14 14 13 13 13 13 14 14 16 18 19 20 23 25 24 19 15 14 16 16 17 18 18 18 19 19 20 21 20 20 21 22 23 25 27 26 27 28 29 30 29 28 28 26 25 24 23 22 22 23 22 23 23 20 18 18 18 20 23 26 25 24 25 28 31 34
13 12 13 13 13 13 13 13 14 14 15 15 16 16 16 15 15 15 14 14 13 13 13 13 13 14 14 15 17 20 23 25 25 23 18 14 13 15 16 16 18 18 19 20 20 20 22 22 22 23 24 26 28 28 29 30 29 29 30 30 30 28 27 25 23 23 22 21 22 21 21 21 20 17 15 17 20 22 24 26 25 24 25 27 31
13 13 13 13 13 13 13 13 14 14 14 15 15 15 15 15 15 14 14 13 13 13 13 13 13 14 14 16 17 19 25 29 26 21 18 15 13 14 16 17 18 19 20 21 21 22 22 22 23 24 26 29 30 30 33 36 35 32 30 29 28 27 27 25 23 22 22 22 22 22 18 17 20 18 16 20 24 24 23 24 24 24 23 22 25
13 13 13 13 13 13 13 13 14 14 14 14 15 15 15 14 14 13 13 13 12 12 13 13 13 13 14 16 17 19 25 30 27 21 18 18 16 15 16 18 18 19 20 21 22 23 23 24 24 25 26 29 30 31 36 40 39 36 33 31 29 28 26 26 25 24 22 22 23 24 20 19 22 21 18 20 24 25 26 25 22 21 20 17 15
13 13 13 13 13 13 13 13 14 14 14 14 14 14 14 13 12 12 12 12 12 13 13 13 13 12 13 15 17 19 25 29 27 22 18 19 19 16 16 18 19 19 21 21 22 23 24 25 25 25 26 27 29 31 34 38 38 36 34 33 31 28 26 26 27 26 25 24 24 24 24 23 24 23 19 18 20 23 26 26 23 22 22 19 15
14 14 14 13 13 13 13 13 13 13 13 14 13 13 13 12 11 11 11 12 13 13 13 13 13 12 12 14 16 20 25 28 27 23 18 18 20 18 17 18 19 20 21 21 22 23 24 26 26 27 27 27 29 32 33 34 34 33 34 32 30 29 27 25 25 26 26 27 27 28 27 25 25 26 24 19 18 19 21 23 24 24 24 24 23
13 14 14 14 14 13 13 13 13 13 13 13 13 12 11 10 10 10 11 12 12 13 13 13 13 13 13 13 14 19 26 28 27 24 20 18 19 19 18 18 19 20 21 21 22 23 24 26 27 28 28 27 30 35 36 32 30 31 32 31 29 29 27 25 27 28 26 24 25 29 32 30 28 28 29 23 19 20 19 20 23 25 26 27 28
13 13 13 13 13 14 13 13 13 13 13 12 11 10 9 9 9 10 10 11 11 12 13 13 13 13 13 13 13 18 25 27 27 26 21 18 17 18 17 19 20 20 21 22 21 23 24 25 27 27 26 26 30 37 37 31 28 29 30 29 29 28 26 27 29 30 27 23 22 24 27 28 28 27 27 24 20 19 20 22 25 26 26 26 25
13 13 13 13 13 14 14 13 13 12 12 11 10 9 8 8 9 9 10 11 11 12 13 13 14 14 14 13 13 17 24 27 27 26 22 18 17 16 16 19 21 20 21 22 21 22 23 24 27 26 24 26 31 37 36 28 26 28 29 28 28 28 27 28 30 31 28 22 19 20 21 19 20 22 23 22 19 17 18 21 23 22 19 18 18
13 12 13 12 13 14 14 14 13 12 11 10 9 8 8 8 8 9 10 11 11 12 12 13 14 15 15 15 14 16 22 26 27 26 24 20 18 16 15 19 21 21 22 22 22 22 22 24 28 26 24 27 33 37 35 27 24 27 29 29 29 29 31 31 31 31 30 24 19 18 18 16 12 12 13 14 16 15 13 14 18 20 16 10 9
13 12 12 13 13 14 14 14 13 12 11 10 9 8 8 8 8 9 10 11 11 11 11 12 13 15 17 17 16 15 19 25 27 27 26 23 19 16 16 19 21 22 22 22 22 22 22 25 31 30 27 30 36 38 36 28 24 26 28 29 29 32 35 34 32 32 33 30 27 23 21 20 17 14 11 8 7 8 7 7 11 15 15 13 10
12 12 13 13 13 14 14 14 13 12 11 10 9 8 8 8 8 9 9 10 10 10 11 12 12 14 15 17 17 16 16 22 27 28 27 26 22 17 17 19 21 22 23 22 22 23 22 24 31 34 33 35 38 40 38 31 25 25 27 29 30 33 37 35 32 33 34 34 32 30 28 25 22 19 18 15 10 6 3 1 3 5 7 12 13
13 13 14 14 14 14 14 14 13 12 11 10 9 8 9 9 9 9 10 10 10 10 10 11 12 12 13 14 17 18 17 20 25 27 27 27 24 19 16 17 19 21 23 22 22 23 23 22 27 33 35 37 39 40 40 35 28 25 28 31 32 34 36 35 34 34 34 33 32 31 30 30 28 24 20 19 19 18 15 11 7 5 6 6 8
15 14 14 15 15 15 15 14 13 12 11 10 10 10 10 10 10 10 10 10 10 10 9 10 10 11 12 12 14 18 19 20 22 25 26 26 25 22 17 16 18 20 21 21 20 21 21 21 24 30 33 34 37 40 41 38 31 28 31 34 33 32 34 36 36 37 37 36 35 33 33 33 31 28 25 24 24 23 20 18 15 11 10 10 7
16 16 16 16 16 16 15 14 13 13 12 11 12 11 11 11 10 11 11 10 10 9 9 9 9 9 11 11 11 14 18 21 22 24 26 26 25 24 20 17 17 19 19 18 18 19 20 19 23 30 31 30 32 37 41 40 36 34 35 36 35 33 33 34 36 38 39 41 41 38 37 36 32 29 30 30 27 24 21 19 18 16 14 13 12
16 16 17 17 17 16 16 14 13 13 12 12 13 13 12 11 10 9 9 9 9 9 8 8 8 9 9 11 11 11 13 18 21 24 25 25 25 24 22 19 17 15 16 16 16 18 19 20 24 29 31 27 27 32 38 42 40 38 38 38 37 35 34 34 35 37 38 41 41 40 40 39 34 30 31 31 28 25 22 21 20 18 17 17 15
17 17 17 17 17 16 15 14 13 13 13 13 13 12 11 10 10 9 8 8 8 9 8 8 8 9 9 9 11 12 12 14 18 21 22 22 23 23 23 21 18 14 13 14 15 17 19 21 24 28 29 27 24 26 32 38 41 40 40 40 39 38 36 35 35 35 36 37 37 36 38 38 34 30 30 30 28 26 25 24 24 21 19 21 22
17 17 17 17 16 15 14 14 13 12 12 12 12 11 11 10 10 9 9 9 9 9 9 8 8 9 9 10 10 12 13 13 15 18 18 18 19 21 21 21 20 16 12 12 14 17 20 23 24 25 26 26 24 23 26 31 36 39 40 42 42 41 38 36 34 34 34 33 32 32 35 36 33 30 30 30 29 28 27 25 25 23 20 21 24
17 17 17 16 15 15 14 13 12 12 11 11 10 10 10 9 10 9 9 9 9 9 9 9 9 9 9 10 10 11 13 13 14 16 17 15 16 18 19 19 19 17 13 12 14 17 20 21 22 22 24 25 24 23 23 26 29 33 36 39 42 42 39 35 32 32 33 32 31 31 32 34 35 35 35 35 33 31 28 25 25 24 22 21 23
17 16 16 15 15 14 13 13 12 11 11 11 10 10 10 10 9 9 8 8 9 9 9 9 10 10 9 10 10 10 11 13 14 15 16 15 15 16 17 17 17 16 15 14 14 16 18 19 19 20 22 23 23 23 24 24 26 29 31 32 35 38 38 37 33 31 31 30 30 31 31 34 38 39 38 38 37 34 30 27 26 26 24 23 22
17 16 15 14 13 13 12 11 11 10 10 10 10 10 10 11 11 10 9 8 8 8 9 9 10 11 11 10 10 10 11 12 13 13 15 15 15 15 16 16 16 15 16 16 15 14 16 18 19 20 22 23 23 24 25 24 24 26 28 29 29 30 32 35 36 36 35 31 29 31 32 34 37 38 36 37 39 38 33 28 27 26 25 25 24
16 16 15 14 13 13 12 10 10 10 10 10 10 10 9 10 11 11 12 12 11 10 10 9 9 10 11 11 10 9 9 11 11 11 12 13 14 14 15 16 16 14 15 17 15 14 15 17 18 20 21 22 22 23 24 25 24 25 26 28 28 27 28 29 30 33 35 32 28 29 31 32 34 36 35 35 36 37 35 31 28 26 25 25 24
16 15 14 13 13 12 11 10 10 11 11 11 12 12 11 10 10 11 11 13 14 14 14 13 11 9 9 10 10 9 7 7 8 9 9 10 12 13 14 15 16 15 16 16 15 14 15 17 17 19 20 21 21 22 23 24 24 24 25 26 27 28 28 27 26 28 30 29 27 27 28 28 30 32 33 33 33 34 34 32 29 28 27 25 23
15 14 13 13 12 11 11 11 10 10 10 11 11 11 11 11 10 10 10 10 12 13 14 14 13 12 9 7 7 8 6 5 6 7 8 9 9 11 13 15 17 18 18 16 15 15 15 16 16 17 18 19 20 21 21 22 23 23 24 24 25 26 28 27 26 27 27 27 27 27 27 27 29 29 29 30 30 30 32 32 31 29 27 25 23
14 13 13 13 12 10 11 10 9 9 9 8 8 9 10 9 9 9 8 9 9 10 11 11 11 12 11 9 7 7 8 8 7 7 7 7 7 9 13 17 18 18 17 15 14 15 15 16 16 17 17 18 19 19 20 21 22 22 23 24 24 25 27 27 26 26 26 26 27 28 27 27 28 28 27 28 28 28 30 31 31 29 27 25 25
14 13 13 14 12 10 10 10 9 9 9 7 7 6 6 7 8 8 8 8 8 8 9 9 8 8 9 10 10 9 10 11 10 8 7 7 6 7 11 14 16 17 16 14 14 15 15 15 16 17 17 17 18 19 19 20 21 21 22 22 23 24 25 25 25 25 26 27 26 27 27 27 26 26 27 27 27 27 28 29 29 28 27 26 26
13 13 14 14 12 10 10 10 9 8 8 7 6 5 4 4 4 4 6 7 6 7 7 6 6 6 6 8 9 10 10 11 11 11 9 7 6 8 10 11 12 14 14 13 13 14 15 15 16 16 17 17 17 18 19 19 20 20 20 21 22 22 23 24 24 24 24 26 26 26 26 26 25 25 25 26 27 27 27 27 28 28 27 26 26
13 13 14 13 11 10 10 9 8 8 7 6 6 5 5 4 3 2 2 2 2 4 5 5 4 4 4 5 6 8 9 10 11 12 11 9 8 9 10 9 9 11 12 12 12 13 14 14 15 15 16 16 17 17 18 18 19 20 19 20 21 21 22 23 24 24 23 23 25 25 25 25 25 24 24 25 26 27 27 26 26 26 26 25 25
13 14 14 12 10 10 10 9 8 8 7 6 5 5 4 3 3 2 2 1 1 0 2 3 3 2 2 3 4 5 7 8 10 11 11 11 10 10 9 8 9 10 11 11 12 12 12 13 14 14 15 15 16 17 17 18 18 19 19 19 20 20 21 21 23 24 22 22 23 23 23 24 24 24 24 24 24 25 25 25 25 24 24 24 24
13 14 14 12 10 9 9 8 7 7 6 5 4 4 4 3 2 2 1 1 1 1 1 1 2 4 4 2 2 4 4 5 7 9 11 12 11 9 8 8 8 9 9 10 11 11 11 12 13 13 14 15 15 15 16 16 17 18 18 18 18 20 20 20 21 22 22 21 22 22 22 22 22 22 22 23 23 24 24 24 23 23 23 23 23
12 13 13 12 10 10 9 8 7 7 6 5 4 4 3 3 2 2 2 2 1 1 1 0 1 3 3 2 1 2 4 4 4 4 7 8 8 7 6 7 8 8 8 9 10 10 10 11 12 12 13 14 14 14 15 15 16 17 18 17 17 18 20 19 19 20 21 20 20 21 21 21 21 21 21 21 21 21 22 22 22 21 21 22 22
12 12 12 12 10 9 8 8 8 8 7 5 4 4 3 3 3 3 2 2 2 1 1 1 2 2 1 1 2 4 5 4 3 3 4 5 5 6 6 6 6 7 7 8 8 9 9 9 10 11 12 13 13 13 14 14 15 15 16 17 16 17 18 19 18 19 19 19 19 19 20 20 20 20 20 20 20 19 19 20 20 20 19 20 20
13 12 13 13 11 8 7 7 7 7 6 5 4 4 4 4 4 4 3 3 3 2 2 2 2 2 1 1 3 4 4 4 3 3 3 4 4 5 5 5 5 6 6 6 7 7 8 8 9 10 11 12 12 12 13 13 14 14 15 16 16 15 16 17 17 17 17 18 18 18 18 19 19 19 19 19 19 18 18 17 18 18 18 18 18
13 12 14 15 13 9 8 8 7 6 6 5 5 5 4 4 5 5 4 4 4 4 4 4 3 2 2 2 3 4 5 5 4 3 3 3 3 4 4 4 4 5 5 5 6 6 7 7 8 8 9 10 11 11 12 12 12 12 13 14 15 15 14 15 16 16 15 16 17 17 17 17 17 17 18 18 17 17 17 17 16 16 16 16 16
13 12 12 13 13 11 9 9 8 7 7 6 6 6 5 5 5 5 5 5 5 5 5 5 5 3 3 4 5 6 7 7 5 4 4 4 3 3 3 3 3 3 4 4 4 5 5 6 6 7 8 8 9 10 10 11 11 11 12 12 13 14 14 14 15 16 15 14 15 16 16 16 15 15 16 16 16 16 16 17 16 15 14 14 13
12 11 11 11 12 11 10 9 9 9 9 8 7 7 6 6 6 6 6 6 6 6 6 7 6 5 5 5 6 7 8 8 6 5 5 5 5 4 4 4 3 3 3 3 3 4 4 5 5 5 6 6 7 8 8 9 9 10 10 10 11 12 13 13 14 15 15 14 14 14 15 15 14 13 14 15 15 14 15 15 15 14 13 13 12
11 11 10 10 10 10 10 9 9 9 9 8 7 7 7 7 7 7 7 7 6 6 7 7 7 6 6 6 7 8 8 7 7 6 6 6 6 6 6 5 4 4 4 4 3 3 4 4 4 5 5 5 5 5 6 6 7 8 9 9 9 10 11 12 12 14 14 14 13 13 13 14 14 13 13 13 13 13 13 14 14 13 13 12 12
12 11 11 10 10 10 10 9 9 10 9 9 9 8 8 9 8 8 7 7 7 6 7 7 7 7 8 7 7 8 7 7 7 7 7 7 7 7 7 6 6 6 6 5 5 5 5 5 5 5 5 5 5 5 5 5 5 5 6 7 8 8 9 10 10 11 13 13 12 11 12 12 13 13 13 12 12 12 12 12 12 12 11 11 11
13 11 11 11 10 9 9 9 9 10 10 10 10 10 9 10 9 9 8 8 7 7 7 7 7 8 8 9 9 8 8 8 8 7 7 7 7 7 7 7 7 8 7 7 7 7 7 6 6 6 5 5 5 5 5 5 4 4 4 5 6 6 7 8 8 9 11 12 11 11 11 11 11 12 13 12 11 11 10 10 10 10 10 10 9
13 12 11 11 10 9 9 8 8 9 10 11 10 10 9 9 9 9 9 9 9 9 9 9 9 9 9 9 10 9 9 9 9 9 9 8 8 8 8 8 9 9 9 9 9 9 9 9 8 8 7 7 7 6 6 6 5 4 4 3 3 4 5 7 8 7 8 9 9 9 10 10 9 10 11 11 10 10 10 9 9 9 8 8 8
13 12 12 11 11 10 9 9 9 9 10 11 11 10 10 10 10 10 10 10 10 11 11 11 11 10 10 10 10 10 10 10 10 10 10 9 9 9 9 9 9 10 10 11 11 11 11 11 11 10 10 10 9 8 8 7 7 6 5 4 4 4 5 7 7 6 7 8 8 8 8 9 8 8 9 10 10 10 9 9 8 8 7 7 7
13 13 12 12 12 11 10 10 10 10 11 11 11 11 11 11 11 11 11 11 11 11 12 12 12 12 11 11 11 11 11 11 11 11 11 10 10 10 9 9 10 10 11 11 12 13 13 13 13 13 13 12 11 11 10 10 9 8 7 7 7 6 5 5 6 6 7 8 7 6 7 8 8 7 7 8 8 9 8 8 8 8 6 6 6
14 13 12 12 12 12 11 11 10 10 11 11 11 11 11 11 11 11 11 12 12 12 12 12 13 13 12 12 12 12 12 12 12 12 12 11 11 11 10 10 11 11 11 11 12 12 13 14 14 15 16 15 15 14 13 12 12 11 10 11 11 9 7 6 6 6 6 6 6 6 6 7 7 7 7 7 7 7 7 8 8 8 7 6 5
15 14 14 13 13 13 13 12 12 11 11 11 11 11 11 11 11 12 12 12 12 13 13 13 13 13 13 13 13 13 13 13 13 13 13 13 13 13 12 12 12 12 12 12 12 12 13 13 14 15 16 17 17 17 16 15 15 14 14 15 14 12 10 9 8 7 7 7 6 6 6 7 7 7 7 7 7 7 7 7 8 8 7 6 5
Wind_Direction
99 98 98 100 101 99 95 92 87 85 83 81 79 76 74 76 77 76 72 67 63 58 53 47 39 33 28 24 21 17 14 12 11 10 9 5 1 358 357 357 356 355 353 351 350 346 342 339 338 336 334 331 328 325 323 321 318 314 313 311 311 311 308 300 288 281 278 270 266 270 269 263 257 253 249 246 242 237 236 235 232 231 226 220 224
106 105 104 103 100 98 95 91 87 84 84 82 79 77 73 74 77 78 75 69 65 60 55 49 41 36 31 27 23 18 15 12 10 10 9 5 1 358 355 355 355 354 351 350 349 346 343 340 339 339 337 333 330 328 326 326 324 318 316 314 309 308 310 310 305 297 288 278 269 267 267 261 254 253 250 246 244 239 235 235 231 227 225 220 222
109 108 107 104 102 99 95 93 89 85 84 81 79 77 74 74 75 77 76 72 67 61 57 52 45 40 36 30 26 21 16 13 9 9 9 6 3 359 355 355 354 351 350 349 347 345 343 341 341 341 339 337 335 333 332 330 328 322 317 314 310 307 306 306 304 302 299 291 280 268 261 257 254 255 253 248 247 242 235 233 229 224 223 222 221
110 109 107 105 102 99 95 93 90 86 82 80 79 77 74 74 74 74 75 72 69 65 59 55 49 44 39 34 30 24 19 14 10 8 7 6 4 0 358 357 355 352 351 349 347 346 345 342 342 342 341 340 338 337 336 334 330 325 320 317 314 310 308 304 300 298 298 297 292 281 266 254 253 256 256 251 246 242 236 231 228 225 224 225 223
110 108 106 105 102 98 94 91 87 84 82 79 78 76 74 73 73 73 74 73 70 67 61 57 53 48 43 37 31 26 20 15 11 7 4 4 4 2 359 358 356 354 353 351 350 349 347 345 343 344 344 342 341 339 337 334 332 327 322 319 315 312 309 306 301 297 295 293 294 291 276 260 258 258 255 251 246 241 236 231 228 226 225 225 224
111 108 106 103 99 96 92 88 86 83 81 79 77 76 75 73 72 72 73 72 70 67 64 61 56 52 46 39 33 28 22 17 13 8 3 2 5 4 1 359 357 356 354 353 352 352 350 348 347 347 347 344 342 340 337 334 332 327 323 319 316 312 309 305 302 298 294 290 291 290 279 264 257 257 256 251 243 238 235 233 231 228 225 225 226
112 107 105 100 96 94 90 88 86 82 81 80 79 77 75 73 72 71 71 72 70 68 66 63 59 54 48 41 35 29 24 19 15 11 6 4 7 6 3 1 359 358 357 355 355 355 353 352 350 348 348 346 343 340 337 335 330 325 322 318 314 311 308 304 301 297 292 289 287 286 282 271 256 253 257 252 242 238 236 234 232 228 226 227 228
112 107 103 99 96 94 91 88 86 84 83 82 80 78 76 73 72 71 71 70 68 68 66 64 61 55 49 44 37 31 26 20 16 12 7 5 10 9 6 4 2 360 359 358 358 357 355 354 352 349 346 343 341 338 336 334 328 323 320 318 314 310 305 302 300 296 292 287 285 284 283 275 260 250 250 243 234 235 235 233 233 229 224 226 229
111 106 102 99 98 96 94 91 88 86 85 82 81 79 76 74 72 70 69 68 67 66 65 64 61 56 51 45 38 32 26 21 18 17 13 10 11 11 9 7 5 3 0 359 359 359 357 355 351 348 345 341 339 337 334 332 328 320 316 315 312 309 305 301 297 295 292 288 283 281 278 272 260 247 238 230 228 233 234 233 235 235 228 226 230
109 107 103 101 101 99 96 94 90 88 86 83 82 80 77 75 72 70 68 67 67 65 63 62 59 55 51 44 39 33 26 22 22 26 31 29 18 12 12 11 8 7 4 1 0 359 358 355 351 348 346 343 340 337 334 334 332 325 320 316 312 306 300 296 293 291 291 288 283 280 278 273 265 253 239 235 236 236 234 232 233 234 231 226 231
107 106 105 104 104 102 99 96 92 90 86 84 82 80 78 75 73 71 68 65 65 63 61 59 56 55 51 44 40 32 24 22 23 30 41 42 32 19 15 14 12 10 8 6 2 359 356 354 351 349 348 345 342 338 336 337 337 334 331 327 322 312 299 290 287 284 284 285 283 280 277 274 270 260 244 238 239 235 233 234 232 228 225 223 229
111 109 108 108 107 104 102 99 94 91 87 85 83 80 79 77 74 71 67 64 63 61 59 57 54 53 51 46 41 32 24 21 24 31 41 43 39 32 21 17 15 12 10 8 5 1 357 353 350 349 348 347 346 342 338 338 338 338 336 334 332 326 316 306 299 291 284 282 281 281 278 277 278 273 256 238 234 235 234 233 231 226 223 224 225
115 113 112 111 108 106 105 101 96 93 88 85 83 81 80 78 74 72 68 65 63 60 58 55 53 52 50 47 43 32 23 20 23 31 39 40 40 38 27 20 19 16 13 11 7 4 360 354 351 349 348 348 349 347 342 339 338 339 338 337 336 333 330 328 326 317 302 288 280 276 275 277 281 281 273 253 234 234 235 230 230 228 225 227 228
113 113 113 112 111 110 108 103 99 95 90 86 84 82 81 78 75 73 69 66 63 60 57 53 51 50 48 47 44 31 22 21 23 29 35 39 39 37 29 22 22 19 15 14 10 7 4 358 353 349 348 349 350 351 348 342 340 341 341 340 340 338 336 336 338 335 326 310 294 284 280 279 279 281 281 269 241 230 231 229 229 229 228 232 234
112 113 113 112 113 112 110 106 101 95 90 88 85 84 83 79 76 73 70 67 64 61 58 54 52 50 46 46 46 32 23 23 25 28 33 37 37 35 30 24 23 21 17 16 13 10 7 1 355 350 349 349 352 356 355 349 345 346 345 343 344 344 343 341 341 341 339 331 321 311 299 288 279 278 281 276 255 237 236 239 239 237 234 236 238
112 112 112 112 113 113 111 107 102 97 94 92 90 87 85 80 77 75 73 71 67 65 62 57 53 51 46 45 47 37 26 25 27 28 31 36 35 32 30 26 24 22 19 17 15 12 10 5 360 356 352 351 356 1 2 357 353 353 351 349 349 348 347 344 344 348 349 343 336 334 327 309 288 279 276 271 260 246 240 242 241 237 234 233 233
110 110 111 111 111 111 110 106 103 101 99 97 95 91 87 81 78 76 75 73 70 69 67 62 56 53 48 45 45 41 31 27 29 30 32 36 33 28 28 28 25 23 20 17 15 15 13 9 7 4 360 359 3 7 7 2 358 359 357 354 353 353 350 346 346 352 357 359 357 351 346 343 328 305 287 270 257 244 234 233 232 228 227 228 226
111 111 111 111 109 108 107 106 105 104 103 102 100 95 88 83 79 76 75 75 74 72 69 66 61 56 53 48 46 45 37 31 32 33 34 37 37 29 27 28 25 22 21 18 17 17 14 11 12 13 9 7 10 13 12 7 1 2 0 358 357 355 351 348 347 352 359 6 11 11 4 1 1 359 353 330 280 241 221 233 238 229 224 225 224
114 115 114 111 109 106 105 106 106 106 106 104 101 96 90 85 82 80 79 78 77 75 71 68 64 59 57 52 48 48 41 35 36 36 35 38 41 34 29 30 28 24 22 19 17 17 16 12 14 18 17 14 14 16 17 15 9 4 4 3 360 355 352 351 350 354 1 6 10 11 8 7 9 10 11 15 21 40 74 305 284 265 245 236 228
119 118 115 111 109 107 105 105 105 106 108 104 100 97 92 88 84 81 80 80 79 76 72 70 67 62 60 57 51 48 43 36 37 39 38 38 41 40 33 28 25 23 23 22 19 18 18 13 13 17 19 17 16 17 19 21 17 11 10 8 1 356 357 359 358 1 6 8 7 7 7 12 17 16 12 17 29 37 40 38 29 11 350 307 249
122 120 116 112 109 106 105 106 105 105 105 104 102 98 92 89 86 82 81 80 78 78 75 72 71 65 60 60 55 49 46 41 39 40 41 40 41 42 37 25 20 22 23 24 21 19 18 13 10 15 18 17 16 18 21 24 23 19 18 14 7 5 7 5 4 8 12 11 10 9 10 12 15 16 18 21 27 31 32 32 32 29 22 14 353
124 121 116 112 108 107 107 107 105 105 105 105 102 97 93 90 87 83 82 80 78 78 75 71 72 69 61 58 55 49 46 44 41 41 42 41 42 43 40 34 32 29 25 23 21 18 16 11 9 12 15 14 15 18 22 26 27 25 23 20 15 14 14 10 9 14 16 15 12 10 12 13 10 10 18 24 25 26 29 29 28 29 30 27 20
125 120 116 111 109 109 109 109 108 107 107 104 99 96 93 89 87 84 83 82 79 77 75 71 69 68 62 56 52 47 44 42 38 37 36 37 39 41 41 41 41 34 23 22 21 17 13 8 9 12 13 12 13 16 21 27 29 28 27 24 19 17 16 13 14 15 17 18 14 9 11 13 9 6 13 19 21 24 29 31 30 30 31 31 33
124 119 116 114 113 113 113 112 110 108 105 102 97 94 90 86 85 83 79 79 77 72 70 68 65 63 59 53 49 42 38 35 30 27 27 27 29 32 35 36 37 33 25 22 20 16 12 10 10 12 12 13 16 17 19 24 27 29 30 27 23 19 17 15 14 15 16 17 15 9 9 11 10 8 10 13 17 22 29 32 32 34 36 36 39
125 122 121 119 118 119 118 115 110 107 104 100 94 90 88 84 84 82 76 74 72 69 66 63 60 57 52 49 46 40 35 32 25 20 20 19 18 20 23 25 26 25 21 17 14 12 12 12 13 12 11 14 18 18 19 20 22 25 30 30 27 23 18 15 15 17 18 16 14 13 11 11 13 17 18 18 20 23 27 31 33 34 36 37 40
128 126 125 124 124 123 120 116 110 105 102 98 91 87 85 84 83 81 77 73 68 65 63 58 55 54 50 46 44 38 33 30 24 19 17 16 14 14 14 15 17 18 16 12 11 11 11 11 13 13 13 15 18 18 19 19 18 21 25 28 28 26 22 17 16 17 19 16 16 17 16 15 20 25 27 26 24 23 25 30 32 33 34 36 40
130 130 128 128 128 126 123 120 114 108 102 98 93 88 83 81 79 76 72 72 69 65 62 57 51 48 46 43 43 41 35 29 23 18 16 14 12 13 12 11 12 14 14 10 8 10 11 11 13 14 15 17 18 19 19 19 20 22 22 22 23 24 24 24 23 22 21 18 18 21 22 22 26 28 28 29 27 25 27 31 33 34 34 36 41
134 133 132 131 131 129 129 126 120 113 106 100 95 89 84 79 75 67 59 57 62 59 55 55 52 47 44 39 36 37 36 30 24 19 18 18 17 15 13 11 9 10 13 11 6 6 10 13 14 15 16 16 17 18 18 17 19 21 21 21 19 17 20 23 23 24 24 21 20 24 26 25 28 29 29 30 31 29 29 31 33 35 35 37 41
136 135 134 133 132 132 133 130 123 115 110 101 92 89 91 88 81 75 71 71 75 70 60 55 49 44 45 42 36 36 34 27 21 20 20 23 26 25 21 18 16 13 15 17 13 7 10 14 14 14 15 15 14 14 15 15 16 17 18 19 18 15 14 15 15 17 18 16 14 19 22 23 27 30 31 33 33 33 33 33 33 34 36 38 40
140 138 137 136 137 138 136 131 127 124 118 111 104 99 101 104 101 95 89 83 81 78 73 68 63 58 55 45 34 35 36 24 16 20 20 20 28 32 30 29 29 28 25 22 18 13 13 15 14 13 14 14 13 12 12 13 13 13 15 16 17 16 15 15 14 13 12 9 8 12 17 21 26 30 32 34 34 35 35 36 35 36 37 37 38
143 143 142 141 142 143 139 135 134 133 130 127 125 119 113 109 107 104 99 91 84 78 74 71 68 68 72 62 33 23 27 22 11 14 16 16 23 32 33 31 31 31 27 22 18 16 15 14 13 14 14 13 11 10 10 11 11 11 13 14 15 16 15 15 15 14 12 11 11 12 17 23 28 29 31 34 34 34 35 36 37 38 38 38 39
148 147 145 145 147 145 142 140 139 138 138 139 142 141 135 128 121 111 99 91 85 79 73 70 65 62 65 69 57 34 26 23 13 6 9 12 15 24 29 28 26 24 23 21 19 18 16 14 14 13 12 13 12 8 8 10 10 10 11 12 13 15 15 14 14 16 16 15 15 15 17 22 27 29 31 33 34 33 34 36 38 39 39 40 42
152 150 148 150 153 150 147 147 147 146 148 150 152 154 151 142 136 132 123 110 96 85 76 69 65 58 53 53 52 44 35 29 20 11 8 6 4 12 18 19 18 17 19 20 19 18 16 15 14 14 12 12 11 9 8 10 9 9 10 11 11 12 13 12 13 16 17 17 16 17 18 21 24 27 30 34 36 36 36 38 40 41 41 43 45
152 150 150 154 156 154 153 155 155 154 153 153 153 151 141 131 133 143 145 138 129 121 106 84 67 60 54 47 42 38 35 31 27 24 18 10 14 19 14 8 10 14 16 18 19 18 16 14 13 13 12 11 10 9 8 9 9 9 9 10 11 10 10 11 12 14 16 17 17 17 19 21 24 26 30 34 39 41 41 41 43 45 45 45 46
152 151 155 159 159 158 158 158 157 157 156 156 155 147 139 140 138 118 116 126 137 142 134 119 96 69 51 46 43 38 35 32 31 29 27 29 35 30 16 8 11 15 16 19 19 18 16 14 12 11 11 10 9 9 8 8 9 9 8 8 9 8 7 9 8 8 12 17 17 17 20 22 24 27 31 35 38 41 44 45 44 47 49 49 47
155 155 162 168 166 162 162 162 161 161 158 155 151 145 142 149 150 134 130 130 113 147 150 143 143 133 77 49 37 32 32 34 33 29 27 32 36 28 14 11 14 15 16 17 16 16 16 14 11 11 10 9 8 9 8 7 8 8 6 6 8 8 7 7 6 4 8 14 17 18 21 24 24 26 31 34 36 39 44 48 48 48 51 53 52
160 159 166 174 172 166 167 169 165 158 156 156 157 152 151 152 150 147 144 125 87 297 247 184 188 191 177 139 36 5 360 11 22 21 17 19 22 20 13 13 13 13 15 16 11 10 14 13 10 9 9 8 7 8 7 7 8 7 6 6 8 7 5 5 6 6 7 12 15 16 20 23 25 28 30 33 34 34 37 44 49 50 52 54 56
168 165 169 173 172 170 172 172 168 167 173 182 185 177 166 162 165 166 150 125 130 251 252 213 221 220 198 171 186 297 298 297 310 343 358 3 7 8 10 13 12 10 11 12 9 7 10 11 9 7 7 6 6 6 6 6 6 7 6 6 7 7 7 7 8 9 10 12 14 15 17 20 23 26 29 31 34 35 36 39 44 48 51 53 55
176 172 172 175 175 177 178 174 173 182 193 197 192 184 185 193 202 207 202 187 193 237 264 248 235 245 258 257 258 269 277 280 284 315 343 353 357 360 4 8 9 8 6 5 6 5 6 7 8 7 6 6 5 5 6 5 5 6 7 6 6 8 9 9 9 9 11 12 12 13 15 17 19 22 26 28 31 34 38 41 44 48 51 53 55
178 176 181 186 188 188 186 183 184 190 200 205 203 200 204 211 219 223 224 225 230 245 266 271 263 243 237 284 299 297 294 291 292 315 332 339 344 351 358 360 360 1 0 360 1 2 2 5 7 7 6 5 5 4 4 4 4 5 7 8 8 9 10 10 9 8 9 11 12 11 12 14 17 20 22 24 26 29 33 39 45 49 52 55 57
177 176 184 195 201 200 197 200 203 204 207 212 216 216 215 218 227 231 231 235 243 247 251 261 263 235 225 262 287 291 289 288 286 291 302 310 320 331 341 347 350 352 353 355 358 359 359 0 3 5 5 4 3 2 3 4 4 5 8 10 9 8 8 9 8 7 8 11 12 12 10 11 16 18 18 20 23 26 28 33 39 45 49 53 56
180 176 180 193 204 209 210 211 212 213 217 221 224 229 232 230 229 233 235 241 250 255 257 261 257 234 231 258 272 272 275 279 281 280 281 282 290 301 308 314 323 334 340 345 349 350 350 351 352 356 359 359 359 1 3 3 5 7 8 10 10 8 8 9 8 7 7 9 11 11 9 9 13 17 16 17 21 25 25 26 30 37 43 44 49
186 187 187 192 201 210 215 217 216 215 218 221 221 226 234 235 233 234 234 237 246 253 256 261 259 242 235 253 270 270 264 261 262 266 268 269 273 279 280 281 291 301 306 311 322 332 335 337 340 345 349 350 353 359 1 2 3 5 7 9 10 9 8 9 8 7 7 6 6 9 11 10 11 15 17 16 18 23 24 23 24 29 35 37 39
192 197 198 198 203 210 215 219 220 217 216 220 223 227 232 234 236 237 235 236 244 250 251 256 259 251 241 245 255 257 254 254 259 264 264 263 265 265 265 266 270 274 278 281 285 298 307 311 318 325 330 333 337 344 351 355 360 4 5 7 9 10 9 10 9 7 7 6 4 6 11 12 11 12 14 14 16 19 21 22 22 23 26 32 35
199 202 203 203 206 210 211 215 219 217 213 216 221 224 226 229 233 237 239 241 246 250 252 254 255 252 249 250 250 251 254 257 260 261 259 261 262 260 258 259 258 257 262 264 262 268 279 287 291 298 305 311 316 320 327 335 344 355 0 2 6 8 7 6 7 8 10 11 9 6 9 12 13 12 11 11 14 17 17 17 18 19 20 25 30
200 203 204 203 205 208 210 211 213 213 212 213 218 220 222 225 230 235 240 243 248 253 258 260 254 250 251 252 253 256 259 259 259 258 258 259 261 260 259 258 255 254 256 257 254 255 260 265 271 277 282 286 292 297 300 303 311 324 336 349 359 2 1 6 11 10 8 11 13 9 7 11 13 12 10 10 11 14 13 11 13 14 13 14 19
200 204 207 206 206 210 213 213 212 212 213 215 219 223 226 229 233 237 239 244 249 254 259 262 260 256 254 253 254 255 256 256 258 260 259 260 261 261 260 258 255 255 255 255 254 253 253 256 258 259 262 267 273 276 279 282 286 292 300 318 340 348 358 14 21 9 0 9 15 8 4 8 11 9 10 10 7 7 8 5 6 8 6 6 11
204 206 210 211 211 213 214 212 213 216 219 220 222 227 233 238 243 245 245 245 246 249 253 256 258 258 257 256 257 257 257 258 259 260 259 260 260 260 259 257 256 257 258 257 255 253 252 252 251 250 253 259 261 261 264 267 268 271 274 274 286 313 344 11 18 5 3 14 14 358 354 4 5 0 4 5 1 2 3 359 358 2 359 358 4
211 211 214 215 216 220 221 218 217 218 220 222 225 227 232 238 242 246 250 252 252 252 254 255 257 259 259 258 259 258 257 257 257 257 260 261 260 259 259 257 255 257 259 260 258 256 254 253 251 249 249 251 252 252 254 255 255 259 258 255 265 287 316 343 353 354 2 9 1 342 344 357 355 350 355 356 353 355 357 352 348 351 351 351 357
218 217 220 220 220 223 225 224 225 225 223 225 228 230 232 238 243 247 251 254 255 257 258 257 258 260 259 259 260 260 258 258 257 257 259 261 261 261 261 257 253 255 258 259 260 259 257 256 254 251 249 250 249 249 250 250 251 251 247 249 260 274 285 293 309 326 339 348 346 334 331 338 341 343 346 346 343 345 348 345 341 337 334 339 348
220 222 226 226 227 229 228 226 229 230 228 229 234 236 238 243 247 250 253 255 256 258 260 259 259 260 259 259 260 259 258 259 260 261 262 264 263 262 261 257 253 254 256 258 259 259 258 257 256 253 252 252 251 249 248 248 248 246 246 250 259 267 270 274 283 291 300 312 321 317 311 313 319 326 330 332 333 335 332 330 330 327 321 324 329